Location: Unspecified
(38.0989°N, 0.6729°W)
Time: 10:33:27
(UTC+01:00)

BlueWalker 3 - Pass Details

Date: 07 December 2022
Orbit: 499 x 517 km, 53.2° (Epoch: 27 January)

Event Time Altitude Azimuth Distance (km) Brightness Sun altitude
Rises 18:32:59 0° 320° (NW) 2,632 5.8 -9.8°
Reaches altitude 10° 18:36:10 10° 348° (NNW) 1,737 4.6 -10.4°
Maximum altitude 18:38:12 14° 19° (NNE) 1,518 4.0 -10.8°
Enters shadow 18:39:24 12° 39° (NE) 1,594 4.0 -11.0°
